timestamp,wind_dir_avg,wind_spd_avg,wind_spd_max_dir,wind_spd_gust,battery_voltage,lat,long
2022-05-28 00:04:00+00:00,220.0,6.45,226.0,7.91,12.89,47.59359,-54.27349
2022-05-28 00:14:00+00:00,214.0,6.42,228.0,8.2,12.49,47.59359,-54.27349
2022-05-28 00:24:00+00:00,196.0,6.4,221.0,7.88,12.49,47.59359,-54.27349
2022-05-28 00:34:00+00:00,207.0,7.67,218.0,9.09,12.49,47.59359,-54.27349
2022-05-28 00:44:00+00:00,184.0,6.02,184.0,6.46,12.49,47.59359,-54.27349
2022-05-28 00:54:00+00:00,185.0,5.65,186.0,6.14,12.49,47.59359,-54.27349
2022-05-28 01:04:00+00:00,217.0,6.73,221.0,7.92,12.49,47.59359,-54.27349
2022-05-28 01:14:01+00:00,205.0,5.68,228.0,7.55,12.41,47.59359,-54.27349
2022-05-28 01:24:01+00:00,185.0,4.52,186.0,5.07,12.41,47.59359,-54.27349
2022-05-28 01:34:01+00:00,182.0,4.82,182.0,5.4,12.41,47.59359,-54.27349
2022-05-28 01:44:01+00:00,184.0,3.83,181.0,4.49,12.41,47.59359,-54.27349
2022-05-28 01:54:01+00:00,194.0,3.34,212.0,4.04,12.41,47.59359,-54.27349
2022-05-28 02:04:01+00:00,177.0,2.23,176.0,2.56,12.41,47.59359,-54.27349
2022-05-28 02:14:00+00:00,195.0,2.23,199.0,2.51,12.41,47.59359,-54.27349
2022-05-28 02:24:00+00:00,191.0,2.06,191.0,2.27,12.41,47.59359,-54.27349
2022-05-28 02:34:00+00:00,167.0,1.18,166.0,1.48,12.41,47.59359,-54.27349
2022-05-28 02:44:00+00:00,140.0,1.61,122.0,2.15,12.41,47.59359,-54.27349
2022-05-28 02:54:00+00:00,162.0,2.04,163.0,2.38,12.41,47.59359,-54.27349
2022-05-28 03:04:00+00:00,166.0,2.32,167.0,2.55,12.41,47.59359,-54.27349
2022-05-28 03:14:00+00:00,131.0,1.8,110.0,3.67,12.41,47.59359,-54.27349
2022-05-28 03:24:00+00:00,99.0,0.93,83.0,2.93,12.41,47.59359,-54.27349
2022-05-28 03:34:00+00:00,101.0,0.72,129.0,1.19,12.41,47.59359,-54.27349
2022-05-28 03:44:00+00:00,113.0,0.74,105.0,1.14,12.41,47.59359,-54.27349
2022-05-28 03:54:00+00:00,112.0,0.75,147.0,1.37,12.41,47.59359,-54.27349
2022-05-28 04:04:00+00:00,129.0,1.63,114.0,2.09,12.41,47.59359,-54.27349
2022-05-28 04:14:01+00:00,130.0,1.0,135.0,1.45,12.41,47.59359,-54.27349
2022-05-28 04:24:01+00:00,76.0,0.68,72.0,1.1,12.41,47.59359,-54.27349
2022-05-28 04:34:01+00:00,104.0,0.66,112.0,1.01,12.41,47.59359,-54.27349
2022-05-28 04:44:01+00:00,96.0,0.83,78.0,1.19,12.41,47.59359,-54.27349
2022-05-28 04:54:01+00:00,86.0,1.08,78.0,1.45,12.41,47.59359,-54.27349
2022-05-28 05:04:01+00:00,106.0,0.78,115.0,1.39,12.41,47.59359,-54.27349
2022-05-28 06:14:01+00:00,99.0,2.14,103.0,2.87,12.33,47.59359,-54.27349
2022-05-28 06:24:01+00:00,95.0,1.7,99.0,2.76,12.33,47.59359,-54.27349
2022-05-28 06:34:01+00:00,98.0,1.71,111.0,2.5,12.33,47.59359,-54.27349
2022-05-28 06:44:01+00:00,77.0,1.7,80.0,2.71,12.33,47.59359,-54.27349
2022-05-28 06:54:01+00:00,82.0,1.78,78.0,2.6,12.33,47.59359,-54.27349
2022-05-28 07:04:01+00:00,71.0,2.13,79.0,3.77,12.33,47.59359,-54.27349
2022-05-28 07:14:01+00:00,78.0,2.29,93.0,3.68,12.25,47.59359,-54.27349
2022-05-28 07:24:01+00:00,76.0,1.97,67.0,2.99,12.25,47.59359,-54.27349
2022-05-28 07:34:01+00:00,98.0,1.44,115.0,2.09,12.25,47.59359,-54.27349
2022-05-28 07:44:01+00:00,80.0,2.07,91.0,2.97,12.25,47.59359,-54.27349
2022-05-28 07:54:01+00:00,98.0,1.56,124.0,2.52,12.25,47.59359,-54.27349
2022-05-28 08:04:01+00:00,76.0,1.62,55.0,2.47,12.25,47.59359,-54.27349
2022-05-28 08:14:00+00:00,97.0,2.01,109.0,2.98,12.25,47.59359,-54.27349
2022-05-28 08:24:00+00:00,96.0,1.77,98.0,3.12,12.25,47.59359,-54.27349
2022-05-28 08:34:00+00:00,87.0,1.1,126.0,1.8,12.25,47.59359,-54.27349
2022-05-28 08:44:00+00:00,92.0,1.37,91.0,2.17,12.25,47.59359,-54.27349
2022-05-28 08:54:00+00:00,93.0,1.87,78.0,2.99,12.25,47.59359,-54.27349
2022-05-28 09:04:00+00:00,99.0,1.8,108.0,2.93,12.25,47.59359,-54.27349
2022-05-28 09:14:00+00:00,96.0,1.03,95.0,1.97,12.33,47.59359,-54.27349
2022-05-28 09:24:00+00:00,126.0,2.23,128.0,3.17,12.33,47.59359,-54.27349
2022-05-28 09:34:00+00:00,123.0,2.44,127.0,3.04,12.33,47.59359,-54.27349
2022-05-28 09:44:00+00:00,126.0,2.5,130.0,3.73,12.33,47.59359,-54.27349
2022-05-28 09:54:00+00:00,126.0,2.58,104.0,3.28,12.33,47.59359,-54.27349
2022-05-28 10:04:00+00:00,120.0,2.21,130.0,2.98,12.33,47.59359,-54.27349
2022-05-28 10:14:01+00:00,122.0,2.7,123.0,4.04,13.6,47.59359,-54.27349
2022-05-28 10:24:01+00:00,102.0,1.31,139.0,3.08,13.6,47.59359,-54.27349
2022-05-28 10:34:01+00:00,92.0,1.84,92.0,2.75,13.6,47.59359,-54.27349
2022-05-28 10:44:01+00:00,115.0,1.65,135.0,2.66,13.6,47.59359,-54.27349
2022-05-28 10:54:01+00:00,111.0,1.3,124.0,2.48,13.6,47.59359,-54.27349
2022-05-28 11:04:01+00:00,108.0,1.83,147.0,2.98,13.6,47.59359,-54.27349
2022-05-28 11:14:01+00:00,130.0,3.35,122.0,3.97,13.44,47.59359,-54.27349
2022-05-28 11:24:01+00:00,123.0,3.68,117.0,5.73,13.44,47.59359,-54.27349
2022-05-28 11:34:01+00:00,124.0,3.6,121.0,4.53,13.44,47.59359,-54.27349
2022-05-28 11:44:01+00:00,122.0,3.69,105.0,5.63,13.44,47.59359,-54.27349
2022-05-28 11:54:01+00:00,129.0,4.27,126.0,5.57,13.44,47.59359,-54.27349
2022-05-28 12:04:01+00:00,106.0,1.94,98.0,5.46,13.44,47.59359,-54.27349
2022-05-28 12:14:00+00:00,86.0,1.86,88.0,4.64,13.44,47.59359,-54.27349
2022-05-28 12:24:00+00:00,107.0,5.06,108.0,6.6,13.44,47.59359,-54.27349
2022-05-28 12:34:00+00:00,107.0,3.59,103.0,5.41,13.44,47.59359,-54.27349
2022-05-28 12:44:00+00:00,128.0,4.68,123.0,6.35,13.44,47.59359,-54.27349
2022-05-28 12:54:00+00:00,135.0,5.37,138.0,6.52,13.44,47.59359,-54.27349
2022-05-28 13:04:00+00:00,133.0,5.21,122.0,6.9,13.44,47.59359,-54.27349
2022-05-28 13:14:01+00:00,127.0,3.99,112.0,4.9,13.53,47.59359,-54.27349
2022-05-28 13:24:01+00:00,133.0,4.19,123.0,5.53,13.53,47.59359,-54.27349
2022-05-28 13:34:01+00:00,129.0,5.11,119.0,6.78,13.53,47.59359,-54.27349
2022-05-28 13:44:01+00:00,165.0,3.24,165.0,3.95,13.53,47.59359,-54.27349
2022-05-28 13:54:01+00:00,161.0,2.92,140.0,3.38,13.53,47.59359,-54.27349
2022-05-28 14:04:01+00:00,159.0,3.23,138.0,3.82,13.53,47.59359,-54.27349
2022-05-28 14:14:00+00:00,169.0,2.97,167.0,3.2,13.68,47.59359,-54.27349
2022-05-28 14:24:00+00:00,166.0,2.84,166.0,2.98,13.68,47.59359,-54.27349
2022-05-28 14:34:00+00:00,150.0,2.86,123.0,4.35,13.68,47.59359,-54.27349
2022-05-28 14:44:00+00:00,170.0,3.74,170.0,4.27,13.68,47.59359,-54.27349
2022-05-28 14:54:00+00:00,159.0,3.58,133.0,5.25,13.68,47.59359,-54.27349
2022-05-28 15:04:00+00:00,133.0,5.35,119.0,7.09,13.68,47.59359,-54.27349
2022-05-28 15:14:01+00:00,140.0,6.65,137.0,8.5,13.68,47.59359,-54.27349
2022-05-28 15:24:01+00:00,127.0,4.84,112.0,6.8,13.68,47.59359,-54.27349
2022-05-28 15:34:01+00:00,137.0,5.62,125.0,7.06,13.68,47.59359,-54.27349
2022-05-28 15:44:01+00:00,139.0,6.22,128.0,7.58,13.68,47.59359,-54.27349
2022-05-28 15:54:01+00:00,129.0,6.1,122.0,7.48,13.68,47.59359,-54.27349
2022-05-28 16:04:01+00:00,125.0,5.08,121.0,7.06,13.68,47.59359,-54.27349
2022-05-28 16:14:01+00:00,135.0,5.97,122.0,8.44,13.68,47.59359,-54.27349
2022-05-28 16:24:01+00:00,126.0,5.03,122.0,6.28,13.68,47.59359,-54.27349
2022-05-28 16:34:01+00:00,135.0,5.13,141.0,6.41,13.68,47.59359,-54.27349
2022-05-28 16:44:01+00:00,135.0,6.27,138.0,7.34,13.68,47.59359,-54.27349
2022-05-28 16:54:01+00:00,113.0,4.35,103.0,5.81,13.68,47.59359,-54.27349
2022-05-28 17:04:01+00:00,134.0,5.44,136.0,6.78,13.68,47.59359,-54.27349
2022-05-28 17:14:01+00:00,137.0,5.34,127.0,6.44,13.68,47.59359,-54.27349
2022-05-28 17:24:01+00:00,127.0,6.62,117.0,7.92,13.68,47.59359,-54.27349
2022-05-28 17:34:01+00:00,137.0,7.07,134.0,8.22,13.68,47.59359,-54.27349
2022-05-28 17:44:01+00:00,139.0,7.23,139.0,8.0,13.68,47.59359,-54.27349
2022-05-28 17:54:01+00:00,136.0,5.56,140.0,6.34,13.68,47.59359,-54.27349
2022-05-28 18:04:01+00:00,130.0,6.65,127.0,9.03,13.68,47.59359,-54.27349
2022-05-28 18:14:01+00:00,127.0,7.0,126.0,8.98,13.6,47.59359,-54.27349
2022-05-28 18:24:01+00:00,132.0,9.56,124.0,11.81,13.6,47.59359,-54.27349
2022-05-28 18:34:01+00:00,128.0,8.07,134.0,9.38,13.6,47.59359,-54.27349
2022-05-28 18:44:01+00:00,138.0,7.21,150.0,9.59,13.6,47.59359,-54.27349
2022-05-28 18:54:01+00:00,149.0,8.84,150.0,10.4,13.6,47.59359,-54.27349
2022-05-28 19:04:01+00:00,142.0,9.48,146.0,11.77,13.6,47.59359,-54.27349
2022-05-28 19:14:00+00:00,139.0,6.94,132.0,9.25,13.6,47.59359,-54.27349
2022-05-28 19:24:00+00:00,138.0,7.85,143.0,9.78,13.6,47.59359,-54.27349
2022-05-28 19:34:00+00:00,140.0,8.32,143.0,9.46,13.6,47.59359,-54.27349
2022-05-28 19:44:00+00:00,142.0,8.09,143.0,8.99,13.6,47.59359,-54.27349
2022-05-28 19:54:00+00:00,148.0,4.16,137.0,5.13,13.6,47.59359,-54.27349
2022-05-28 20:04:00+00:00,131.0,4.76,135.0,6.09,13.6,47.59359,-54.27349
2022-05-28 20:14:01+00:00,137.0,5.0,138.0,5.94,13.37,47.59359,-54.27349
2022-05-28 20:24:01+00:00,123.0,5.47,123.0,6.45,13.37,47.59359,-54.27349
2022-05-28 20:34:01+00:00,127.0,4.22,121.0,4.85,13.37,47.59359,-54.27349
2022-05-28 20:44:01+00:00,122.0,6.62,126.0,7.35,13.37,47.59359,-54.27349
2022-05-28 20:54:01+00:00,120.0,6.47,125.0,7.7,13.37,47.59359,-54.27349
2022-05-28 21:04:01+00:00,126.0,8.49,123.0,10.42,13.37,47.59359,-54.27349
2022-05-28 21:14:00+00:00,126.0,7.35,128.0,8.2,13.29,47.59359,-54.27349
2022-05-28 21:24:00+00:00,128.0,7.81,135.0,8.73,13.29,47.59359,-54.27349
2022-05-28 21:34:00+00:00,126.0,7.46,134.0,8.65,13.29,47.59359,-54.27349
2022-05-28 21:44:00+00:00,127.0,7.98,137.0,9.07,13.29,47.59359,-54.27349
2022-05-28 21:54:00+00:00,112.0,5.98,129.0,8.64,13.29,47.59359,-54.27349
2022-05-28 22:04:00+00:00,131.0,7.73,137.0,9.4,13.29,47.59359,-54.27349
2022-05-28 22:14:01+00:00,133.0,7.9,136.0,8.91,13.05,47.59359,-54.27349
2022-05-28 22:24:01+00:00,139.0,8.19,142.0,9.21,13.05,47.59359,-54.27349
2022-05-28 22:34:01+00:00,137.0,9.08,140.0,10.48,13.05,47.59359,-54.27349
2022-05-28 22:44:01+00:00,141.0,6.41,137.0,7.41,13.05,47.59359,-54.27349
2022-05-28 22:54:01+00:00,134.0,5.25,122.0,6.04,13.05,47.59359,-54.27349
2022-05-28 23:04:01+00:00,141.0,7.35,142.0,8.35,13.05,47.59359,-54.27349
2022-05-28 23:14:00+00:00,144.0,7.32,142.0,9.72,12.41,47.59359,-54.27349
2022-05-28 23:24:00+00:00,147.0,8.52,144.0,11.69,12.41,47.59359,-54.27349
2022-05-28 23:34:00+00:00,154.0,8.16,161.0,9.22,12.41,47.59359,-54.27349
2022-05-28 23:44:00+00:00,146.0,9.95,143.0,10.93,12.41,47.59359,-54.27349
2022-05-28 23:54:00+00:00,144.0,8.16,140.0,9.02,12.41,47.59359,-54.27349
